RH
79 94 96 97 88 92 92 90 90 88 85 83 83 84 84 83 81 83 84 84 86 83 84 84 83 82 81 81 76 72 32 32
86 89 97 98 92 95 92 90 92 89 85 85 86 85 86 85 86 84 84 87 86 83 84 84 83 83 84 83 75 68 33 33
88 87 86 93 82 80 84 95 92 89 87 89 87 66 69 70 71 86 86 88 85 84 85 84 85 85 84 81 77 32 34 33
85 87 83 82 78 71 77 94 85 80 81 74 54 67 62 52 74 91 91 89 85 85 86 87 70 44 50 71 33 37 34 35
87 81 91 87 85 79 94 93 90 90 84 71 67 59 61 59 58 63 69 78 58 60 64 42 43 40 41 37 41 39 35 35
80 84 78 85 87 94 93 93 90 94 86 76 73 67 65 60 46 49 56 51 54 50 46 46 46 42 41 45 43 36 35 36
76 77 80 89 82 94 96 93 98 93 89 81 72 65 69 56 48 46 46 44 48 49 46 48 47 44 42 43 42 41 42 36
75 75 80 83 88 86 97 95 94 94 93 88 79 74 71 59 49 44 45 45 44 45 46 41 39 40 43 42 42 40 41 41
80 86 78 86 87 92 93 97 93 91 94 88 85 77 71 64 54 44 41 43 50 46 45 38 33 30 34 34 35 41 40 44
89 84 84 86 94 97 95 96 92 90 94 94 86 78 68 62 48 46 41 44 44 43 40 36 35 31 32 31 32 35 42 46
92 84 89 96 97 97 94 95 94 90 93 96 90 79 68 51 50 47 49 44 43 42 40 41 40 34 31 32 34 33 41 40
92 85 89 94 98 98 98 96 97 96 94 95 93 81 70 61 56 55 47 42 44 41 45 41 39 36 27 32 37 35 37 43
93 92 90 92 94 98 97 98 97 98 96 96 94 79 66 65 52 57 49 47 47 50 47 49 44 42 36 38 41 45 46 39
90 90 90 87 88 96 97 95 96 96 96 96 93 81 66 62 56 59 54 48 54 55 53 49 49 52 50 39 44 40 39 40
80 80 91 87 89 92 95 96 96 95 96 96 92 85 68 64 53 54 55 51 54 57 56 56 53 56 50 43 46 47 39 36
70 71 86 84 83 82 88 89 85 80 86 81 86 87 83 71 58 55 60 56 59 60 54 56 53 54 53 47 53 49 47 53
76 70 85 82 78 82 85 83 79 92 84 69 78 81 79 80 78 77 66 61 66 65 64 63 54 52 51 54 53 50 49 56
76 74 79 80 71 69 76 73 79 87 88 81 69 75 68 71 72 75 73 62 61 63 65 69 67 64 55 63 58 60 52 56
72 73 78 74 69 69 76 69 69 75 73 73 57 60 71 76 73 80 71 64 59 61 66 69 69 70 74 66 75 70 67 62
71 70 72 74 76 74 64 58 67 63 58 54 62 54 54 57 59 58 68 69 65 66 70 65 67 71 74 72 73 72 77 81
Wind_Speed
7 9 6 18 16 16 26 25 26 26 25 25 27 26 25 24 23 21 21 20 20 19 18 18 17 18 16 10 6 1 12 11
9 8 12 8 8 3 6 18 23 24 22 24 25 24 24 20 20 21 21 21 20 19 18 17 17 16 14 10 8 4 12 12
6 11 8 9 11 8 6 6 20 20 19 18 20 15 20 22 19 19 20 20 20 19 18 17 16 14 13 12 12 8 9 8
6 8 11 13 9 11 11 2 11 13 15 20 16 17 16 17 16 18 19 20 20 19 18 17 16 11 9 9 5 8 7 8
8 8 7 8 7 7 4 7 8 10 15 16 13 14 13 12 11 11 13 18 13 15 15 12 12 9 10 6 9 7 6 8
11 10 8 10 5 6 8 8 10 9 13 13 13 10 13 12 11 14 14 12 16 14 11 10 10 8 8 9 8 7 6 7
7 8 8 6 10 7 8 11 8 11 13 14 12 13 11 12 12 12 13 13 14 13 11 10 10 9 8 9 8 7 8 7
5 6 7 8 10 12 7 10 11 10 11 12 12 10 11 12 13 13 13 12 13 12 11 11 9 9 9 9 8 8 8 8
6 5 6 9 11 10 9 11 13 12 12 14 13 13 13 12 11 12 12 12 14 11 12 10 9 8 10 9 7 8 8 8
6 5 5 5 4 10 13 13 14 13 10 11 14 13 13 14 12 11 12 11 11 10 10 10 9 8 8 8 8 8 8 9
5 6 5 1 4 3 17 19 15 13 12 9 13 12 12 14 11 11 13 10 10 10 9 10 10 9 8 8 6 7 8 7
6 6 7 4 4 5 7 13 11 11 12 10 13 10 13 11 9 11 11 10 10 10 10 9 9 7 7 6 6 5 6 6
7 6 7 4 5 2 5 7 11 8 9 12 12 12 13 11 11 12 11 11 10 10 8 11 7 5 5 4 5 5 7 7
8 8 7 5 5 4 4 5 6 7 8 8 9 11 14 13 13 11 11 10 11 11 9 8 6 7 6 7 6 7 9 10
9 10 9 7 9 8 6 7 6 5 6 7 8 10 14 13 15 12 12 11 10 12 11 12 7 8 9 5 5 6 7 10
10 11 11 9 11 11 13 8 11 7 8 8 9 11 11 11 14 13 11 9 10 11 10 9 9 8 8 11 8 5 5 4
10 11 12 12 12 10 9 9 7 3 4 14 12 11 12 12 11 11 10 9 9 11 12 12 10 9 9 8 11 10 9 5
12 13 13 13 14 15 12 14 11 8 7 8 11 9 10 12 9 7 7 10 10 11 12 13 12 11 10 10 10 9 11 10
13 15 14 14 14 14 13 13 13 11 12 9 13 10 8 10 12 12 11 10 12 12 13 14 13 13 14 12 9 10 8 8
15 15 15 16 14 13 14 16 9 9 14 11 9 10 10 11 13 13 10 10 13 14 11 10 12 12 17 15 11 10 8 9
Wind_Direction
145 107 225 266 209 179 168 159 153 149 150 150 146 147 145 144 144 139 129 128 131 131 132 131 131 126 129 130 146 128 113 104
161 193 157 257 240 285 339 156 147 145 149 148 148 147 142 144 133 128 129 129 136 137 135 133 129 129 134 135 133 182 113 120
166 190 164 206 230 214 245 291 137 136 140 143 143 150 148 146 140 133 132 139 141 137 135 132 129 132 137 152 186 114 124 115
196 184 203 200 229 202 201 221 160 149 144 154 163 155 148 151 134 125 133 142 138 138 134 135 160 148 147 176 136 123 130 126
168 199 168 203 210 210 166 181 177 160 153 162 156 159 153 142 147 139 142 147 151 146 144 167 153 155 168 143 125 158 134 121
160 178 198 188 193 177 165 164 181 163 165 174 164 157 150 146 160 151 151 161 155 158 169 157 161 157 156 139 155 146 145 126
196 163 177 187 188 183 166 174 175 169 169 169 170 158 155 159 157 154 154 159 169 171 165 165 158 159 164 156 162 144 147 137
215 194 174 186 189 194 186 183 173 172 164 163 169 162 156 155 155 160 155 167 167 171 163 163 155 161 165 164 166 165 169 153
228 190 203 201 209 212 193 184 181 175 163 165 168 161 160 149 159 165 162 169 161 165 163 156 155 178 168 167 169 175 174 172
196 190 194 210 261 218 203 186 181 171 163 159 160 161 173 151 165 168 158 156 164 158 168 155 163 181 172 168 178 177 181 186
189 180 148 122 343 265 197 171 170 168 163 156 150 165 167 159 165 166 164 158 162 164 170 168 164 186 177 179 179 183 186 191
166 183 141 115 56 43 134 136 141 142 149 153 145 166 176 156 152 162 170 161 163 171 169 178 175 177 183 175 190 187 197 201
162 163 145 133 95 42 104 110 124 115 119 128 147 170 175 156 168 166 172 171 173 167 177 178 161 163 179 179 203 201 211 209
165 158 167 152 111 83 56 88 81 100 116 128 147 166 167 167 167 173 177 167 173 178 178 189 141 174 186 190 202 200 218 213
185 165 161 164 131 110 91 81 95 115 144 155 157 161 173 174 178 180 175 181 184 181 184 198 174 189 213 218 214 233 197 199
184 169 168 173 160 149 151 156 158 173 163 164 162 168 167 173 172 177 179 189 187 187 194 206 203 193 206 236 260 313 214 187
182 173 165 171 182 160 156 154 153 121 163 159 169 174 173 159 171 163 184 199 195 197 199 211 215 219 206 215 232 239 245 265
180 179 175 176 186 174 177 174 155 154 161 174 176 171 173 173 156 160 187 210 212 216 216 216 223 226 238 226 229 230 236 233
184 183 178 182 187 184 183 172 172 169 178 184 179 178 177 163 172 185 204 216 229 229 223 226 224 225 228 233 234 240 246 230
190 188 186 184 183 188 194 188 184 186 188 187 186 185 191 189 194 199 207 212 230 237 236 234 234 236 239 235 237 234 212 212